Location: Namur
(44.7347°N, 87.6701°W)
Time: 23:19:46
(UTC+00:00)

Daily predictions for brighter satellites

Satellite Brightness Start Highest point End
(mag) Time Altitude Azimuth Time Altitude Azimuth Time Altitude Azimuth
Cosmos 1743 3.0 12:01:24 10° S 12:04:34 56° E 12:07:46 10° NNE
Cosmos 1733 0.7 12:03:51 10° SSW 12:05:29 74° WNW 12:06:10 27° N
Helios 1A Rocket 3.5 12:02:41 10° SSW 12:05:29 25° W 12:06:52 19° WNW
BREEZE-M DEB (TANK) 4.2 12:04:40 10° SSW 12:06:55 31° SE 12:09:20 10° ENE
SL-16 R/B 2.6 12:02:18 13° NW 12:07:06 43° WSW 12:12:24 10° S
Cosmos 2082 Rocket 3.5 12:06:06 16° WNW 12:07:55 19° NW 12:11:47 10° N
Cosmos 2026 Rocket 4.3 12:02:18 10° SW 12:07:57 41° WNW 12:13:41 10° N
Cosmos 1626 Rocket 3.5 12:03:59 10° SSW 12:08:24 76° W 12:12:49 10° N
ATLAS 3B R/B 4.0 12:10:23 10° NNW 12:17:38 38° NE 12:24:34 10° ESE
ARIANE 5 R/B 3.3 12:14:20 10° NNE 12:19:30 59° ESE 12:24:38 10° S
SL-4 R/B 1.9 12:17:39 14° NW 12:20:13 49° NNE 12:23:18 10° E
Cosmos-2242 3.9 12:21:33 10° NNW 12:25:08 27° W 12:28:42 10° SSW
IRIDIUM 104 4.4 12:20:28 10° SSW 12:25:34 56° W 12:30:43 10° N
COSMO-SKYMED 1 4.0 12:23:30 10° SW 12:26:19 18° W 12:29:07 10° NW
Cosmos 2278 4.5 12:25:45 10° NW 12:30:41 32° WSW 12:35:36 10° SSW
S3M 4.2 12:24:43 10° N 12:30:56 75° E 12:37:03 10° SSE
NOSS 8 (A) 4.2 12:29:12 10° NW 12:32:08 68° SW 12:35:30 10° SSE
Cosmos 1553 Rocket 4.2 12:26:42 10° NNW 12:32:51 52° W 12:39:01 10° SSW
BREEZE-M DEB (TANK) 3.2 12:31:06 10° WNW 12:34:23 70° SSW 12:43:40 10° ESE
Okean 1-7 Rocket 3.9 12:29:55 10° S 12:34:25 74° E 12:38:54 10° NNE
CZ-2D R/B 2.6 12:32:00 10° N 12:35:11 74° WNW 12:38:19 10° SSW
Cosmos 1814 Rocket 4.3 12:30:18 10° SW 12:35:18 45° WNW 12:40:24 10° N
CBERS-1 4.3 12:34:16 10° N 12:39:05 44° WNW 12:43:52 10° SW
CORIOLIS 4.1 12:33:56 10° N 12:39:17 69° WNW 12:44:38 10° SSW
ATLAS 2AS CENTAUR R/B 2.9 12:33:27 10° SSW 12:40:33 82° ESE 12:47:27 10° NE
BREEZE-M DEB (TANK) 3.6 12:38:36 10° WNW 12:41:25 48° N 12:48:57 10° ENE
Cosmos 1812 Rocket 3.5 12:37:21 10° NNW 12:41:39 67° W 12:45:56 10° S
Cosmos 405 Rocket 3.3 12:39:40 10° SW 12:42:26 25° WNW 12:45:13 10° NNW
NOSS 3-2 (A) 3.2 22:33:40 10° SW 22:38:35 81° NW 22:44:31 10° NE
NOSS 3-2 (C) 3.6 22:34:21 10° S 22:38:54 40° ESE 22:44:11 10° NE
Cosmos 1697 Rocket 3.6 22:45:39 10° SSE 22:50:25 30° ESE 22:55:12 10° NE
USA 290 2.8 22:48:44 10° N 22:51:47 36° ENE 22:54:49 10° SE
SAR-Lupe-4 4.3 22:49:08 10° SE 22:52:15 30° ENE 22:55:23 10° N
Cosmos 1602 Rocket 3.9 22:48:13 10° N 22:52:24 41° ENE 22:56:30 10° SSE
NOSS 2-2 (D) 3.5 22:51:38 10° SW 22:54:59 50° NW 22:57:57 10° NNE
ATLAS CENTAUR R/B 0.5 22:53:27 10° NNW 22:56:41 70° NE 22:59:47 10° SE
Cosmos 2228 3.9 22:55:03 10° SSW 22:59:11 52° WNW 23:03:21 10° N
Cosmos 1777 Rocket 4.1 22:54:11 10° S 22:59:19 57° ESE 23:04:27 10° NNE
YAOGAN 1 4.1 22:58:34 10° E 23:00:52 14° ENE 23:03:10 10° NNE
Cosmos 1782 2.5 22:57:20 10° S 23:00:55 89° WNW 23:04:32 10° N
CZ-2D R/B 3.4 22:59:08 10° SE 23:01:59 33° ENE 23:04:51 10° N
SMAP 3.0 22:58:22 10° SSE 23:02:58 66° ENE 23:07:36 10° N
Gbstr 26 Del rocket 3.5 23:01:54 10° SSW 23:05:49 40° SE 23:08:45 14° ENE
UNK 3.7 23:01:43 10° NNE 23:06:18 72° ESE 23:10:49 10° S
Landsat 7 3.8 23:03:50 10° SSE 23:08:22 57° ENE 23:12:57 10° N
Meteor 1-20 Rocket 4.2 23:04:57 10° N 23:10:22 59° ENE 23:15:45 10° SSE
NOSS 2-2 (E) 3.7 23:07:12 10° WSW 23:10:28 43° NW 23:13:22 10° NNE
IRIDIUM 103 4.3 23:06:32 10° N 23:11:43 61° E 23:16:52 10° SSE
Cosmos 1655 Rocket 4.5 23:10:22 10° N 23:16:04 35° ENE 23:21:41 10° SE
Lacrosse 4 Rocket 3.9 23:14:30 10° WNW 23:16:30 13° NW 23:18:30 10° NNW
Cosmos 1656 4.2 23:10:59 10° SW 23:16:32 62° WNW 23:22:11 10° NNE
Cosmos 1486 Rocket 4.1 23:11:32 10° SSW 23:16:44 80° WNW 23:22:00 10° NNE
BREEZE-M DEB (TANK) 4.3 23:14:19 10° WNW 23:17:20 36° N 23:23:29 15° ENE
Cosmos 1743 2.3 23:14:31 10° N 23:17:46 82° W 23:20:59 10° S
Cosmos 1867 3.7 23:14:57 10° NNW 23:20:16 51° NE 23:25:33 10° SE
Cosmos 2279 Rocket 4.4 23:14:56 10° SSW 23:21:04 65° W 23:27:17 10° N
Cosmos 1825 Rocket 3.7 23:21:55 10° N 23:26:07 46° ENE 23:30:15 10° SSE
CENTAUR R/B 4.0 23:21:54 10° W 23:27:03 28° NNW 23:33:16 10° NNE
Aureole 1 Rocket 4.4 23:24:26 10° SE 23:27:40 21° E 23:28:37 20° ENE
Cosmos 2098 Rocket 3.7 23:24:58 10° SSW 23:28:52 56° WNW 23:33:31 10° N
Cosmos 2297 Rocket 2.4 23:23:17 10° NNW 23:28:57 78° WSW 23:34:36 10° SSE
IRIDIUM 106 4.3 23:24:48 10° N 23:30:03 88° E 23:35:17 10° S
Cosmos 2151 3.0 23:25:59 10° N 23:30:09 81° W 23:34:19 10° S
NOSS 2-3 (C) 4.0 23:30:11 10° S 23:33:13 28° ESE 23:34:00 25° E
Cosmos 990 Rocket 4.0 23:30:27 10° S 23:35:27 59° ESE 23:39:43 14° NNE
NOSS 7 (H) 4.5 23:32:52 10° NNW 23:35:41 41° NE 23:36:38 31° E
ARIANE 5 R/B 2.6 23:31:10 10° SSE 23:36:12 81° WSW 23:41:21 10° NNW
IRS-P3 4.0 23:32:46 10° SSE 23:38:03 75° ENE 23:43:22 10° N
USA 238 DEB 4.0 23:33:32 10° S 23:39:01 38° ESE 23:42:20 23° ENE
USA 238 4.0 23:33:40 10° S 23:39:08 37° ESE 23:42:24 23° ENE
Cosmos 2058 Rocket 3.9 23:39:20 10° SSE 23:43:09 28° E 23:43:32 28° E
CZ-4 R/B 4.3 23:41:17 10° SSE 23:45:09 57° ENE 23:49:03 10° N
Cosmos 2219 4.0 23:41:11 10° N 23:46:09 29° NE 23:47:30 26° ENE
Meteor 1-25 Rocket 4.3 23:40:37 10° N 23:46:28 90° NE 23:52:15 10° S
Cosmos 1933 3.2 23:43:07 10° S 23:46:57 81° W 23:50:48 10° N
SPOT 1/Viking Rocket 3.5 23:42:00 10° SSE 23:47:07 62° ENE 23:52:16 10° N
Cosmos 1607 4.2 23:41:40 10° NW 23:47:52 70° WSW 23:54:08 10° SSE
SAR-Lupe-3 3.4 23:47:41 70° NNE 23:47:55 87° ESE 23:50:25 10° SSW
USA 215 4.2 23:44:52 20° NE 23:48:10 32° N 23:53:46 10° NW
BlueWalker 3 3.8 23:45:12 10° WNW 23:48:20 28° SW 23:51:28 10° SSE
SJ-12 4.3 23:45:26 10° S 23:49:09 57° W 23:52:53 10° NNW
CZ-4C R/B 3.0 23:43:05 10° NW 23:50:15 89° SW 23:59:05 10° SE
Meteor 1-5 Rocket 4.0 23:47:35 10° N 23:52:54 67° ENE 23:58:20 10° SSE
Cosmos 1980 Rocket 2.5 23:47:36 10° S 23:52:54 43° ESE 23:55:10 29° ENE
Cosmos 1076 Rocket 3.5 23:49:43 10° N 23:53:58 58° ENE 23:58:13 10° SSE
Cosmos 2084 Rocket 3.5 23:51:19 10° NW 23:55:32 77° SW 23:59:43 10° SSE
